Location: Bad Salzschlirf
(50.3750°N, 9.3000°E)
Time: 05:36:26
(UTC+02:00)

ISS - Pass Details

Date: 27 March 2020
Orbit: 417 x 423 km, 51.6° (Epoch: 29 March)

Event Time Altitude Azimuth Distance (km) Brightness Sun altitude
Rises 20:40:14 0° 280° (W) 2,360 1.4 -17.9°
Reaches altitude 10° 20:42:20 10° 282° (WNW) 1,497 0.2 -18.2°
Maximum altitude 20:45:41 75° 9° (N) 437 -3.7 -18.6°
Enters shadow 20:46:09 61° 69° (ENE) 479 -3.8 -18.7°
